Beaufort, SC

4:01 PM EDT on September 29, 2016 (GMT -0400)
Beaufort Marine Corps Air Station

Weather History for KNBC - March, 2014

Change the Weather History Date:

Sunday, March 2, 2014

  Actual Average Record
Temperature  
Mean Temperature 56 °F -  
Max Temperature 70 °F 66 °F 84 °F (1951)
Min Temperature 41 °F 43 °F 22 °F (1980)
Degree Days  
Heating Degree Days 10    
Growing Degree Days 6 (Base 50)    
Moisture  
Dew Point 43 °F    
Average Humidity 73    
Maximum Humidity 93    
Minimum Humidity 42    
Precipitation  
Precipitation 0.00 in - - ()
Sea Level Pressure  
Sea Level Pressure 30.18 in    
Wind  
Wind Speed 2 mph (South)    
Max Wind Speed 9 mph    
Max Gust Speed -    
Visibility 8 miles    
Events Fog    
Averages and records for this station are not official NWS values.
T = Trace of Precipitation, MM = Missing Value Source: NWS Daily Summary

Daily Weather History Graph

Daily Weather History Graph

Search for Another Location

Airport or City:

Trip Planner

Search our weather history database for the weather conditions in past years. The results will help you decide how hot, cold, wet, or windy it might be!

Date:

Astronomy

Mar. 02, 2014 Rise Set
Actual Time 6:49 AM EST 6:21 PM EST
Civil Twilight 6:24 AM EST 6:45 PM EST
Nautical Twilight 5:56 AM EST 7:14 PM EST
Astronomical Twilight 5:27 AM EST 7:42 PM EST
Moon 7:26 AM EST (3/2) 8:06 PM EST (3/2)
Length of Visible Light 12h 21m
Length of Day
11h 31m
Waxing Crescent, 3% of the Moon is Illuminated
Mar 2
Waxing Crescent
Mar 8
First Quarter
Mar 16
Full
Mar 23
Last Quarter
Mar 30
New

Hourly Weather History & Observations

Time (EST) Temp. Dew Point Humidity Pressure Visibility Wind Dir Wind Speed Gust Speed Precip Events Conditions
12:56 AM 45.0 °F 42.1 °F 90% 30.26 in 10.0 mi Calm Calm - N/A   Clear
1:56 AM 45.0 °F 41.0 °F 86% 30.23 in 10.0 mi Calm Calm - N/A   Clear
2:56 AM 43.0 °F 39.9 °F 89% 30.22 in 10.0 mi Calm Calm - N/A   Clear
3:56 AM 42.1 °F 39.0 °F 89% 30.20 in 5.0 mi Calm Calm - N/A   Clear
4:37 AM 44.1 °F 41.0 °F 89% 30.21 in 8.0 mi Calm Calm - N/A   Scattered Clouds
4:56 AM 43.0 °F 41.0 °F 93% 30.22 in 8.0 mi Calm Calm - N/A   Partly Cloudy
5:49 AM 42.1 °F 39.9 °F 92% 30.22 in 1.5 mi Calm Calm - N/A   Clear
5:53 AM 42.8 °F 39.2 °F 87% 30.23 in 0.8 mi Calm Calm - N/A   Clear
5:56 AM 42.1 °F 39.9 °F 92% 30.23 in 0.5 mi Calm Calm - N/A Fog Fog
6:03 AM 43.0 °F 39.9 °F 89% 30.23 in 1.0 mi Calm Calm - N/A   Clear
6:06 AM 43.0 °F 39.9 °F 89% 30.23 in 1.8 mi Calm Calm - N/A   Clear
6:13 AM 42.1 °F 39.9 °F 92% 30.23 in 7.0 mi Calm Calm - N/A   Clear
6:56 AM 41.0 °F 37.9 °F 89% 30.23 in 6.0 mi Calm Calm - N/A   Clear
7:56 AM 48.9 °F 44.1 °F 83% 30.25 in 8.0 mi Calm Calm - N/A   Clear
8:56 AM 54.0 °F 46.9 °F 77% 30.26 in 10.0 mi Calm Calm - N/A   Clear
9:56 AM 57.9 °F 46.9 °F 67% 30.25 in 10.0 mi Calm Calm - N/A   Clear
10:56 AM 63.0 °F 46.0 °F 54% 30.24 in 10.0 mi Calm Calm - N/A   Clear
11:56 AM 66.0 °F 46.9 °F 50% 30.21 in 10.0 mi South 4.6 mph - N/A   Clear
12:56 PM 66.9 °F 44.1 °F 44% 30.18 in 10.0 mi South 5.8 mph - N/A   Clear
1:56 PM 70.0 °F 46.0 °F 42% 30.16 in 10.0 mi South 3.5 mph - N/A   Clear
2:56 PM 70.0 °F 46.0 °F 42% 30.12 in 10.0 mi South 9.2 mph - N/A   Clear
3:56 PM 69.1 °F 46.9 °F 45% 30.11 in 10.0 mi SSE 9.2 mph - N/A   Clear
4:56 PM 66.9 °F 45.0 °F 45% 30.10 in 10.0 mi South 9.2 mph - N/A   Clear
5:56 PM 62.1 °F 41.0 °F 46% 30.09 in 10.0 mi South 9.2 mph - N/A   Clear
6:56 PM 57.9 °F 45.0 °F 62% 30.09 in 10.0 mi South 5.8 mph - N/A   Clear
7:56 PM 57.0 °F 43.0 °F 59% 30.08 in 10.0 mi SSW 4.6 mph - N/A   Clear
8:56 PM 55.9 °F 45.0 °F 67% 30.08 in 10.0 mi SSW 3.5 mph - N/A   Clear
9:56 PM 55.9 °F 48.9 °F 77% 30.06 in 10.0 mi SSW 5.8 mph - N/A   Clear
10:56 PM 55.9 °F 51.1 °F 84% 30.05 in 10.0 mi SSW 4.6 mph - N/A   Clear
11:56 PM 55.9 °F 50.0 °F 80% 30.04 in 10.0 mi SSW 5.8 mph - N/A   Clear